TimeCDT,TemperatureF,Dew PointF,Humidity,Sea Level PressureIn,VisibilityMPH,Wind Direction,Wind SpeedMPH,Gust SpeedMPH,PrecipitationIn,Events,Conditions,WindDirDegrees,DateUTC
12:53 AM,33.1,21.0,61,30.33,10.0,Variable,3.5,-,N/A,,Overcast,0,2012-10-27 05:53:00
1:53 AM,28.0,21.0,75,30.34,10.0,Calm,Calm,-,N/A,,Clear,0,2012-10-27 06:53:00
2:53 AM,25.0,19.9,81,30.35,10.0,Calm,Calm,-,N/A,,Clear,0,2012-10-27 07:53:00
3:53 AM,23.0,19.0,85,30.35,10.0,Calm,Calm,-,N/A,,Clear,0,2012-10-27 08:53:00
4:53 AM,21.9,19.0,89,30.35,10.0,Calm,Calm,-,N/A,,Mostly Cloudy,0,2012-10-27 09:53:00
5:53 AM,25.0,21.0,85,30.35,10.0,Calm,Calm,-,N/A,,Overcast,0,2012-10-27 10:53:00
6:53 AM,27.0,21.9,81,30.35,10.0,Calm,Calm,-,N/A,,Overcast,0,2012-10-27 11:53:00
7:53 AM,28.0,23.0,81,30.36,10.0,Calm,Calm,-,N/A,,Overcast,0,2012-10-27 12:53:00
9:53 AM,34.0,23.0,64,30.38,10.0,Variable,3.5,-,N/A,,Clear,0,2012-10-27 14:53:00
10:53 AM,37.0,23.0,57,30.37,10.0,Variable,4.6,-,N/A,,Clear,0,2012-10-27 15:53:00
11:53 AM,37.9,19.0,47,30.37,10.0,Variable,6.9,-,N/A,,Clear,0,2012-10-27 16:53:00
12:53 PM,39.9,17.1,40,30.35,10.0,Variable,4.6,-,N/A,,Overcast,0,2012-10-27 17:53:00
1:53 PM,39.9,16.0,38,30.35,10.0,Variable,4.6,-,N/A,,Overcast,0,2012-10-27 18:53:00
2:53 PM,39.0,16.0,39,30.34,10.0,West,4.6,-,N/A,,Partly Cloudy,270,2012-10-27 19:53:00
3:53 PM,41.0,16.0,36,30.33,10.0,SW,9.2,-,N/A,,Mostly Cloudy,220,2012-10-27 20:53:00
5:53 PM,34.0,19.0,54,30.34,10.0,Calm,Calm,-,N/A,,Partly Cloudy,0,2012-10-27 22:53:00
6:53 PM,28.9,18.0,64,30.35,10.0,Calm,Calm,-,N/A,,Clear,0,2012-10-27 23:53:00
7:53 PM,27.0,19.0,72,30.36,10.0,Calm,Calm,-,N/A,,Clear,0,2012-10-28 00:53:00
8:53 PM,25.0,18.0,75,30.36,10.0,Calm,Calm,-,N/A,,Clear,0,2012-10-28 01:53:00
9:53 PM,23.0,18.0,81,30.38,10.0,Calm,Calm,-,N/A,,Clear,0,2012-10-28 02:53:00
11:53 PM,24.1,19.0,81,30.39,10.0,Calm,Calm,-,N/A,,Clear,0,2012-10-28 04:53:00